Regional Weather Roundup
Issued by NWS

Home | Current Version | Previous Version | Graphics & Text | Print | Product List | Glossary On
Versions: 1 2 3 4 5 6 7 8 9 10 11 12 13 14 15 16 17 18 19 20 21 22 23 24 25 26 27 28 29 30 31 32 33 34 35 36 37 38 39 40 41 42 43 44 45 46 47 48 49 50
000
ASUS43 KTOP 221059
RWRKS

WEATHER ROUNDUP FOR KANSAS
NATIONAL WEATHER SERVICE GOODLAND KS
600 AM CDT TUE MAY 22 2018

NOTE:  "FAIR" INDICATES FEW OR NO CLOUDS BELOW 12,000 FEET WITH NO
SIGNIFICANT WEATHER AND/OR OBSTRUCTIONS TO VISIBILITY.

KSZ001>006-013>018-027>032-041>047-221200-
NORTHWEST KANSAS

CITY           SKY/WX    TMP DP  RH WIND       PRES   REMARKS
GOODLAND       CLOUDY    60  47  61 SW9       29.95S
HAYS           CLEAR     61  58  90 S7        29.98R
HILL CITY      CLOUDY    64  60  87 S5        29.96R
RUSSELL        CLEAR     64  62  93 S14       29.97R
$$

KSZ061>065-074>080-084>089-221200-
SOUTHWEST KANSAS

CITY           SKY/WX    TMP DP  RH WIND       PRES   REMARKS
DODGE CITY     CLEAR     60  57  89 SE12      30.00S
GARDEN CITY    CLOUDY    59  57  93 SE9       29.98S
GREAT BEND     CLEAR     64  61  90 S10       29.99
LIBERAL        MOCLDY    61  58  90 SE9       29.99S
$$

KSZ066>073-081>083-090>101-221200-
SOUTHEAST KANSAS

CITY           SKY/WX    TMP DP  RH WIND       PRES   REMARKS
CHANUTE        CLOUDY    63  62  97 E6        30.03R
COFFEYVILLE    CLEAR     62  61  96 CALM      30.01R
HUTCHINSON     CLOUDY    63  62  97 SE7       30.00R
MEDICINE LODGE   N/A     63  61  93 SE3       30.00S
PARSONS        CLEAR     62  61  96 CALM      30.03R
WICHITA INTL   MOCLDY    64  62  93 S9        30.01R
WICHITA JABRA  CLOUDY    62  61  96 S8        30.01R
WICHITA MCCONL CLOUDY    63  59  89 S6        30.01R
WINFIELD       CLOUDY    63  62  97 SE5       30.03R
$$

KSZ007>012-019>026-033>040-048>060-102>105-221200-
NORTHEAST KANSAS

CITY           SKY/WX    TMP DP  RH WIND       PRES   REMARKS
CONCORDIA      PTCLDY    63  60  90 S12       29.98S
EMPORIA        CLOUDY    61  59  93 S5        30.02R
LAWRENCE       CLOUDY    57  56  96 CALM      30.02R
MANHATTAN      PTCLDY    62  60  93 CALM      30.00R
OLATHE IND     CLOUDY    58  56  93 CALM      30.04R
OLATHE EXE     CLOUDY    58  58 100 CALM      30.03R
SALINA         CLOUDY    65  62  90 S9        30.00R
TOPEKA BILLARD CLOUDY    60  60 100 CALM      30.02R
TOPEKA FORBES  CLOUDY    60  59  96 SE3       30.02R
$$




USA.gov is the U.S. government's official web portal to all federal, state and local government web resources and services.